Time,TemperatureF,DewpointF,PressureIn,WindDirection,WindDirectionDegrees,WindSpeedMPH,WindSpeedGustMPH,Humidity,HourlyPrecipIn,Conditions,Clouds,dailyrainin,SoftwareType,DateUTC
2013-01-07 00:00:00,27.5,28.0,29.49,NNW,337,0.0,0.0,97,0.00,,,0.00,Rainwise IP-100,2013-01-07 05:00:00,
2013-01-07 00:05:00,27.4,28.0,29.49,NNW,337,0.0,0.0,97,0.00,,,0.00,Rainwise IP-100,2013-01-07 05:05:00,
2013-01-07 00:10:00,27.6,28.0,29.49,NNW,337,0.0,0.0,97,0.00,,,0.00,Rainwise IP-100,2013-01-07 05:10:00,
2013-01-07 00:15:00,27.7,28.0,29.49,NNW,337,1.2,1.4,97,0.00,,,0.00,Rainwise IP-100,2013-01-07 05:15:00,
2013-01-07 00:20:00,27.7,28.0,29.49,NNW,337,0.0,1.2,97,0.00,,,0.00,Rainwise IP-100,2013-01-07 05:20:00,
2013-01-07 00:25:00,27.7,28.0,29.49,NNW,337,0.0,0.0,97,0.00,,,0.00,Rainwise IP-100,2013-01-07 05:25:00,
2013-01-07 00:31:00,27.6,28.0,29.49,NNW,337,0.0,0.0,97,0.00,,,0.00,Rainwise IP-100,2013-01-07 05:31:00,
2013-01-07 00:36:00,27.6,28.0,29.49,NNW,337,0.0,0.0,97,0.00,,,0.00,Rainwise IP-100,2013-01-07 05:36:00,
2013-01-07 00:41:00,27.6,28.0,29.50,NNW,337,0.0,0.0,97,0.00,,,0.00,Rainwise IP-100,2013-01-07 05:41:00,
2013-01-07 00:46:00,27.6,28.0,29.50,NNW,337,0.0,0.0,97,0.00,,,0.00,Rainwise IP-100,2013-01-07 05:46:00,
2013-01-07 00:51:00,27.6,28.0,29.49,SSW,202,3.3,3.5,97,0.00,,,0.00,Rainwise IP-100,2013-01-07 05:51:00,
2013-01-07 00:56:00,27.6,28.0,29.50,SSW,202,0.0,3.5,97,0.00,,,0.00,Rainwise IP-100,2013-01-07 05:56:00,
2013-01-07 01:01:00,27.7,28.0,29.50,SSW,202,0.0,0.0,97,0.00,,,0.00,Rainwise IP-100,2013-01-07 06:01:00,
2013-01-07 01:06:00,27.6,28.0,29.50,SSW,202,0.0,0.0,97,0.00,,,0.00,Rainwise IP-100,2013-01-07 06:06:00,
2013-01-07 01:11:00,27.6,28.0,29.50,SSW,202,0.0,0.0,97,0.00,,,0.00,Rainwise IP-100,2013-01-07 06:11:00,
2013-01-07 01:16:00,27.4,28.0,29.51,SSW,202,0.0,0.0,97,0.00,,,0.00,Rainwise IP-100,2013-01-07 06:16:00,
2013-01-07 01:21:00,27.2,28.0,29.51,SSW,202,0.0,0.0,97,0.00,,,0.00,Rainwise IP-100,2013-01-07 06:21:00,
2013-01-07 01:26:00,27.1,28.0,29.51,SSW,202,0.0,1.4,97,0.00,,,0.00,Rainwise IP-100,2013-01-07 06:26:00,
2013-01-07 01:31:00,27.2,28.0,29.51,SSW,202,0.0,0.0,98,0.00,,,0.00,Rainwise IP-100,2013-01-07 06:31:00,
2013-01-07 01:36:00,27.2,28.0,29.52,SSW,202,0.0,0.0,98,0.00,,,0.00,Rainwise IP-100,2013-01-07 06:36:00,
2013-01-07 01:41:00,27.2,28.0,29.52,SSW,202,0.0,0.0,98,0.00,,,0.00,Rainwise IP-100,2013-01-07 06:41:00,
2013-01-07 01:47:00,27.3,28.0,29.53,SSW,202,1.4,1.9,98,0.00,,,0.00,Rainwise IP-100,2013-01-07 06:47:00,
2013-01-07 01:52:00,27.4,28.0,29.53,SSW,202,0.0,1.9,98,0.00,,,0.00,Rainwise IP-100,2013-01-07 06:52:00,
2013-01-07 01:57:00,27.4,28.0,29.53,SSW,202,2.3,2.6,98,0.00,,,0.00,Rainwise IP-100,2013-01-07 06:57:00,
2013-01-07 02:02:00,27.4,28.0,29.53,SSW,202,1.2,2.6,98,0.00,,,0.00,Rainwise IP-100,2013-01-07 07:02:00,
2013-01-07 02:07:00,27.4,28.0,29.53,SSW,202,0.0,1.6,98,0.00,,,0.00,Rainwise IP-100,2013-01-07 07:07:00,
2013-01-07 02:12:00,27.5,28.0,29.53,SSW,202,0.0,0.0,98,0.00,,,0.00,Rainwise IP-100,2013-01-07 07:12:00,
2013-01-07 02:17:00,27.6,28.0,29.53,SSW,202,0.0,0.0,98,0.00,,,0.00,Rainwise IP-100,2013-01-07 07:17:00,
2013-01-07 02:22:00,27.6,28.0,29.53,SSW,202,0.0,0.0,98,0.00,,,0.00,Rainwise IP-100,2013-01-07 07:22:00,
2013-01-07 02:27:00,27.4,28.0,29.54,SSW,202,0.0,0.0,97,0.00,,,0.00,Rainwise IP-100,2013-01-07 07:27:00,
2013-01-07 02:32:00,27.4,28.0,29.54,SSW,202,0.0,0.0,97,0.00,,,0.00,Rainwise IP-100,2013-01-07 07:32:00,
2013-01-07 02:37:00,27.4,28.0,29.55,SSW,202,0.0,0.0,97,0.00,,,0.00,Rainwise IP-100,2013-01-07 07:37:00,
2013-01-07 02:42:00,27.6,28.0,29.55,SSW,202,0.0,1.4,97,0.00,,,0.00,Rainwise IP-100,2013-01-07 07:42:00,
2013-01-07 02:47:00,27.9,28.0,29.55,SSW,202,0.0,0.0,98,0.00,,,0.00,Rainwise IP-100,2013-01-07 07:47:00,
2013-01-07 02:52:00,28.0,28.0,29.55,SSW,202,0.0,0.0,97,0.00,,,0.00,Rainwise IP-100,2013-01-07 07:52:00,
2013-01-07 02:57:00,27.9,28.0,29.55,SSW,202,0.0,0.0,97,0.00,,,0.00,Rainwise IP-100,2013-01-07 07:57:00,
2013-01-07 03:03:00,27.9,28.0,29.56,SSW,202,0.0,1.6,97,0.00,,,0.00,Rainwise IP-100,2013-01-07 08:03:00,
2013-01-07 03:08:00,27.9,28.0,29.55,SSW,202,0.0,1.2,97,0.00,,,0.00,Rainwise IP-100,2013-01-07 08:08:00,
2013-01-07 03:13:00,27.9,28.0,29.56,SSW,202,0.0,0.0,97,0.00,,,0.00,Rainwise IP-100,2013-01-07 08:13:00,
2013-01-07 03:18:00,27.9,28.0,29.56,SSW,202,1.4,1.4,97,0.00,,,0.00,Rainwise IP-100,2013-01-07 08:18:00,
2013-01-07 03:23:00,27.9,28.0,29.57,SSW,202,0.0,1.4,97,0.00,,,0.00,Rainwise IP-100,2013-01-07 08:23:00,
2013-01-07 03:28:00,27.9,28.0,29.57,SSW,202,0.0,0.0,97,0.00,,,0.00,Rainwise IP-100,2013-01-07 08:28:00,
2013-01-07 03:33:00,27.9,28.0,29.58,SSW,202,0.0,0.0,97,0.00,,,0.00,Rainwise IP-100,2013-01-07 08:33:00,
2013-01-07 03:38:00,27.9,28.0,29.57,SSW,202,0.0,0.0,97,0.00,,,0.00,Rainwise IP-100,2013-01-07 08:38:00,
2013-01-07 03:43:00,28.0,28.0,29.57,SSW,202,0.0,0.0,97,0.00,,,0.00,Rainwise IP-100,2013-01-07 08:43:00,
2013-01-07 03:48:00,28.1,28.0,29.58,SSW,202,0.0,0.0,97,0.00,,,0.00,Rainwise IP-100,2013-01-07 08:48:00,
2013-01-07 03:53:00,28.2,28.0,29.58,SSW,202,0.0,0.0,97,0.00,,,0.00,Rainwise IP-100,2013-01-07 08:53:00,
2013-01-07 03:58:00,28.2,28.0,29.58,SSW,202,0.0,0.0,97,0.00,,,0.00,Rainwise IP-100,2013-01-07 08:58:00,
2013-01-07 04:00:00,28.2,28.0,29.58,SSW,202,0.0,0.0,97,0.00,,,0.00,Rainwise IP-100,2013-01-07 09:00:00,
2013-01-07 04:01:00,28.2,28.0,29.58,SSW,202,0.0,0.0,98,0.00,,,0.00,Rainwise IP-100,2013-01-07 09:01:00,
2013-01-07 04:06:00,28.2,28.0,29.58,SSW,202,0.0,1.2,98,0.00,,,0.00,Rainwise IP-100,2013-01-07 09:06:00,
2013-01-07 04:11:00,28.3,28.0,29.59,SSW,202,1.2,0.0,98,0.00,,,0.00,Rainwise IP-100,2013-01-07 09:11:00,
2013-01-07 04:16:00,28.3,28.0,29.59,SSW,202,0.0,1.6,98,0.00,,,0.00,Rainwise IP-100,2013-01-07 09:16:00,
2013-01-07 04:22:00,28.2,28.0,29.60,SSW,202,0.0,2.3,98,0.00,,,0.00,Rainwise IP-100,2013-01-07 09:22:00,
2013-01-07 04:27:00,28.4,28.0,29.61,NNW,337,1.6,5.4,97,0.00,,,0.00,Rainwise IP-100,2013-01-07 09:27:00,
2013-01-07 04:32:00,29.0,29.0,29.61,NNE,22,10.3,11.2,97,0.00,,,0.00,Rainwise IP-100,2013-01-07 09:32:00,
2013-01-07 04:37:00,29.9,29.0,29.61,North,360,1.6,10.5,95,0.00,,,0.00,Rainwise IP-100,2013-01-07 09:37:00,
2013-01-07 04:42:00,30.8,29.0,29.61,NNW,337,4.2,8.6,93,0.00,,,0.00,Rainwise IP-100,2013-01-07 09:42:00,
2013-01-07 04:45:00,31.1,29.0,29.61,NW,315,7.5,9.6,92,0.00,,,0.00,Rainwise IP-100,2013-01-07 09:45:00,
2013-01-07 04:50:00,31.3,28.0,29.62,NNW,337,6.8,10.3,91,0.00,,,0.00,Rainwise IP-100,2013-01-07 09:50:00,
2013-01-07 04:56:00,31.5,29.0,29.62,North,360,12.6,17.5,89,0.00,,,0.00,Rainwise IP-100,2013-01-07 09:56:00,
2013-01-07 05:01:00,31.5,29.0,29.62,North,360,13.8,16.1,87,0.00,,,0.00,Rainwise IP-100,2013-01-07 10:01:00,
2013-01-07 05:06:00,31.4,28.0,29.63,NW,315,7.5,14.7,86,0.00,,,0.00,Rainwise IP-100,2013-01-07 10:06:00,
2013-01-07 05:11:00,31.2,26.0,29.64,NNE,22,3.3,13.3,85,0.00,,,0.00,Rainwise IP-100,2013-01-07 10:11:00,
2013-01-07 05:16:00,31.0,26.0,29.64,NNW,337,3.3,9.3,85,0.00,,,0.00,Rainwise IP-100,2013-01-07 10:16:00,
2013-01-07 05:21:00,30.7,26.0,29.65,North,360,5.8,7.7,85,0.00,,,0.00,Rainwise IP-100,2013-01-07 10:21:00,
2013-01-07 05:26:00,30.4,26.0,29.65,NNE,22,5.4,9.3,84,0.00,,,0.00,Rainwise IP-100,2013-01-07 10:26:00,
2013-01-07 05:31:00,30.3,26.0,29.65,NNE,22,5.1,11.9,84,0.00,,,0.00,Rainwise IP-100,2013-01-07 10:31:00,
2013-01-07 05:36:00,30.2,26.0,29.65,NE,45,11.4,14.7,83,0.00,,,0.00,Rainwise IP-100,2013-01-07 10:36:00,
2013-01-07 05:41:00,30.0,26.0,29.66,NNW,337,8.9,15.4,82,0.00,,,0.00,Rainwise IP-100,2013-01-07 10:41:00,
2013-01-07 05:46:00,29.9,26.0,29.67,NNE,22,8.2,13.8,80,0.00,,,0.00,Rainwise IP-100,2013-01-07 10:46:00,
2013-01-07 05:51:00,29.7,24.0,29.67,North,360,8.9,11.9,79,0.00,,,0.00,Rainwise IP-100,2013-01-07 10:51:00,
2013-01-07 05:56:00,29.6,24.0,29.67,NNE,22,9.1,14.0,78,0.00,,,0.00,Rainwise IP-100,2013-01-07 10:56:00,
2013-01-07 06:01:00,29.4,23.0,29.67,NNE,22,7.2,16.1,77,0.00,,,0.00,Rainwise IP-100,2013-01-07 11:01:00,
2013-01-07 06:06:00,29.3,23.0,29.68,ENE,67,5.6,9.6,77,0.00,,,0.00,Rainwise IP-100,2013-01-07 11:06:00,
2013-01-07 06:12:00,29.1,23.0,29.69,NNW,337,4.4,10.3,76,0.00,,,0.00,Rainwise IP-100,2013-01-07 11:12:00,
2013-01-07 06:17:00,29.0,23.0,29.69,NNE,22,8.2,11.0,76,0.00,,,0.00,Rainwise IP-100,2013-01-07 11:17:00,
2013-01-07 06:22:00,28.8,23.0,29.69,NNE,22,4.4,11.4,76,0.00,,,0.00,Rainwise IP-100,2013-01-07 11:22:00,
2013-01-07 06:27:00,28.5,23.0,29.70,NE,45,4.7,13.3,76,0.00,,,0.00,Rainwise IP-100,2013-01-07 11:27:00,
2013-01-07 06:32:00,28.2,21.0,29.70,NNE,22,10.5,11.4,75,0.00,,,0.00,Rainwise IP-100,2013-01-07 11:32:00,
2013-01-07 06:37:00,27.9,21.0,29.71,NNE,22,6.3,12.4,75,0.00,,,0.00,Rainwise IP-100,2013-01-07 11:37:00,
2013-01-07 06:42:00,27.5,21.0,29.72,NNW,337,11.4,15.2,75,0.00,,,0.00,Rainwise IP-100,2013-01-07 11:42:00,
2013-01-07 06:47:00,27.1,21.0,29.72,NNW,337,2.6,17.0,75,0.00,,,0.00,Rainwise IP-100,2013-01-07 11:47:00,
2013-01-07 06:52:00,26.6,21.0,29.73,NNE,22,2.3,16.1,75,0.00,,,0.00,Rainwise IP-100,2013-01-07 11:52:00,
2013-01-07 06:57:00,26.2,21.0,29.73,East,90,2.8,14.2,76,0.00,,,0.00,Rainwise IP-100,2013-01-07 11:57:00,
2013-01-07 07:02:00,25.9,21.0,29.74,North,360,6.5,7.5,76,0.00,,,0.00,Rainwise IP-100,2013-01-07 12:02:00,
2013-01-07 07:07:00,25.5,21.0,29.75,NE,45,3.7,16.1,76,0.00,,,0.00,Rainwise IP-100,2013-01-07 12:07:00,
2013-01-07 07:12:00,25.0,21.0,29.74,ENE,67,4.7,14.5,76,0.00,,,0.00,Rainwise IP-100,2013-01-07 12:12:00,
2013-01-07 07:17:00,24.5,21.0,29.75,NNE,22,5.6,12.1,76,0.00,,,0.00,Rainwise IP-100,2013-01-07 12:17:00,
2013-01-07 07:22:00,24.2,18.0,29.75,NNE,22,12.4,14.5,76,0.00,,,0.00,Rainwise IP-100,2013-01-07 12:22:00,
2013-01-07 07:28:00,23.9,18.0,29.76,North,360,8.9,20.8,76,0.00,,,0.00,Rainwise IP-100,2013-01-07 12:28:00,
2013-01-07 07:33:00,23.6,18.0,29.77,North,360,13.3,16.6,76,0.00,,,0.00,Rainwise IP-100,2013-01-07 12:33:00,
2013-01-07 07:38:00,23.4,16.0,29.77,North,360,16.3,16.3,77,0.00,,,0.00,Rainwise IP-100,2013-01-07 12:38:00,
2013-01-07 07:43:00,23.2,16.0,29.77,NNW,337,12.1,18.0,77,0.00,,,0.00,Rainwise IP-100,2013-01-07 12:43:00,
2013-01-07 07:48:00,23.0,16.0,29.78,North,360,8.2,18.0,77,0.00,,,0.00,Rainwise IP-100,2013-01-07 12:48:00,
2013-01-07 07:53:00,23.0,16.0,29.78,NNE,22,5.1,9.6,77,0.00,,,0.00,Rainwise IP-100,2013-01-07 12:53:00,
2013-01-07 07:58:00,22.9,16.0,29.78,NNW,337,6.1,14.5,77,0.00,,,0.00,Rainwise IP-100,2013-01-07 12:58:00,
2013-01-07 08:03:00,22.9,16.0,29.79,NNW,337,11.0,11.0,77,0.00,,,0.00,Rainwise IP-100,2013-01-07 13:03:00,
2013-01-07 08:08:00,22.9,16.0,29.79,NNE,22,4.0,13.1,77,0.00,,,0.00,Rainwise IP-100,2013-01-07 13:08:00,
2013-01-07 08:13:00,22.9,16.0,29.79,NNE,22,5.6,14.0,77,0.00,,,0.00,Rainwise IP-100,2013-01-07 13:13:00,
2013-01-07 08:18:00,22.9,16.0,29.80,NNE,22,6.1,19.8,76,0.00,,,0.00,Rainwise IP-100,2013-01-07 13:18:00,
2013-01-07 08:23:00,22.9,16.0,29.81,NNE,22,14.9,15.4,76,0.00,,,0.00,Rainwise IP-100,2013-01-07 13:23:00,
2013-01-07 08:28:00,22.9,16.0,29.82,ENE,67,2.8,18.0,76,0.00,,,0.00,Rainwise IP-100,2013-01-07 13:28:00,
2013-01-07 08:33:00,22.9,16.0,29.82,North,360,9.1,13.8,76,0.00,,,0.00,Rainwise IP-100,2013-01-07 13:33:00,
2013-01-07 08:38:00,22.9,16.0,29.82,NNW,337,14.5,15.9,75,0.00,,,0.00,Rainwise IP-100,2013-01-07 13:38:00,
2013-01-07 08:44:00,22.9,16.0,29.83,NNW,337,7.0,17.0,75,0.00,,,0.00,Rainwise IP-100,2013-01-07 13:44:00,
2013-01-07 08:49:00,23.0,16.0,29.84,NNE,22,8.9,13.8,75,0.00,,,0.00,Rainwise IP-100,2013-01-07 13:49:00,
2013-01-07 08:54:00,23.0,16.0,29.84,NNE,22,9.3,16.1,75,0.00,,,0.00,Rainwise IP-100,2013-01-07 13:54:00,
2013-01-07 08:59:00,23.1,16.0,29.84,NNE,22,6.1,14.9,75,0.00,,,0.00,Rainwise IP-100,2013-01-07 13:59:00,
2013-01-07 09:04:00,23.2,16.0,29.84,NNE,22,5.4,13.8,75,0.00,,,0.00,Rainwise IP-100,2013-01-07 14:04:00,
2013-01-07 09:09:00,23.2,16.0,29.85,WNW,292,2.1,10.0,75,0.00,,,0.00,Rainwise IP-100,2013-01-07 14:09:00,
2013-01-07 09:14:00,23.2,16.0,29.84,NNE,22,5.1,14.5,74,0.00,,,0.00,Rainwise IP-100,2013-01-07 14:14:00,
2013-01-07 09:19:00,23.2,16.0,29.86,NE,45,4.2,9.8,74,0.00,,,0.00,Rainwise IP-100,2013-01-07 14:19:00,
2013-01-07 09:24:00,23.2,16.0,29.86,NNW,337,4.9,13.3,74,0.00,,,0.00,Rainwise IP-100,2013-01-07 14:24:00,
2013-01-07 09:29:00,23.2,16.0,29.86,NNE,22,6.5,9.3,73,0.00,,,0.00,Rainwise IP-100,2013-01-07 14:29:00,
2013-01-07 09:34:00,23.3,16.0,29.87,NNE,22,5.1,8.4,73,0.00,,,0.00,Rainwise IP-100,2013-01-07 14:34:00,
2013-01-07 09:39:00,23.3,16.0,29.87,NNE,22,4.0,8.6,73,0.00,,,0.00,Rainwise IP-100,2013-01-07 14:39:00,
2013-01-07 09:44:00,23.3,16.0,29.88,NNE,22,2.8,11.2,73,0.00,,,0.00,Rainwise IP-100,2013-01-07 14:44:00,
2013-01-07 09:49:00,23.3,16.0,29.88,NNW,337,4.9,8.9,72,0.00,,,0.00,Rainwise IP-100,2013-01-07 14:49:00,
2013-01-07 09:54:00,23.4,16.0,29.88,ENE,67,3.3,9.1,72,0.00,,,0.00,Rainwise IP-100,2013-01-07 14:54:00,
2013-01-07 10:00:00,23.3,16.0,29.88,NNW,337,5.8,11.2,72,0.00,,,0.00,Rainwise IP-100,2013-01-07 15:00:00,
2013-01-07 10:05:00,23.3,16.0,29.88,ENE,67,2.1,9.6,72,0.00,,,0.00,Rainwise IP-100,2013-01-07 15:05:00,
2013-01-07 10:10:00,23.2,16.0,29.88,NE,45,4.2,7.2,72,0.00,,,0.00,Rainwise IP-100,2013-01-07 15:10:00,
2013-01-07 10:15:00,23.1,16.0,29.88,ENE,67,7.2,11.0,72,0.00,,,0.00,Rainwise IP-100,2013-01-07 15:15:00,
2013-01-07 10:20:00,22.8,16.0,29.88,ENE,67,4.4,8.6,72,0.00,,,0.00,Rainwise IP-100,2013-01-07 15:20:00,
2013-01-07 10:25:00,22.8,16.0,29.88,NNE,22,4.4,6.8,71,0.00,,,0.00,Rainwise IP-100,2013-01-07 15:25:00,
2013-01-07 10:30:00,22.9,16.0,29.89,North,360,5.8,9.3,71,0.00,,,0.00,Rainwise IP-100,2013-01-07 15:30:00,
2013-01-07 10:35:00,22.9,16.0,29.89,NE,45,3.3,7.9,71,0.00,,,0.00,Rainwise IP-100,2013-01-07 15:35:00,
2013-01-07 10:40:00,23.0,16.0,29.88,NNE,22,9.3,11.9,71,0.00,,,0.00,Rainwise IP-100,2013-01-07 15:40:00,
2013-01-07 10:45:00,23.0,14.0,29.88,NNE,22,7.0,9.8,70,0.00,,,0.00,Rainwise IP-100,2013-01-07 15:45:00,
2013-01-07 10:50:00,23.0,14.0,29.88,ENE,67,8.6,9.6,70,0.00,,,0.00,Rainwise IP-100,2013-01-07 15:50:00,
2013-01-07 10:55:00,22.9,14.0,29.88,NE,45,6.8,8.9,70,0.00,,,0.00,Rainwise IP-100,2013-01-07 15:55:00,
2013-01-07 11:00:00,23.0,14.0,29.88,NE,45,4.4,10.0,69,0.00,,,0.00,Rainwise IP-100,2013-01-07 16:00:00,
2013-01-07 11:05:00,23.1,14.0,29.88,NE,45,9.8,10.3,69,0.00,,,0.00,Rainwise IP-100,2013-01-07 16:05:00,
2013-01-07 11:10:00,23.1,14.0,29.88,ENE,67,4.7,9.8,69,0.00,,,0.00,Rainwise IP-100,2013-01-07 16:10:00,
2013-01-07 11:16:00,23.3,14.0,29.88,NNE,22,2.3,6.1,69,0.00,,,0.00,Rainwise IP-100,2013-01-07 16:16:00,
2013-01-07 11:21:00,23.7,16.0,29.88,NE,45,4.4,6.1,69,0.00,,,0.00,Rainwise IP-100,2013-01-07 16:21:00,
2013-01-07 11:26:00,23.7,16.0,29.87,ENE,67,5.8,10.3,68,0.00,,,0.00,Rainwise IP-100,2013-01-07 16:26:00,
2013-01-07 11:31:00,23.7,16.0,29.88,ENE,67,3.7,7.9,67,0.00,,,0.00,Rainwise IP-100,2013-01-07 16:31:00,
2013-01-07 11:36:00,23.8,16.0,29.87,ENE,67,2.6,8.9,66,0.00,,,0.00,Rainwise IP-100,2013-01-07 16:36:00,
2013-01-07 11:41:00,24.0,16.0,29.87,ENE,67,5.4,8.4,66,0.00,,,0.00,Rainwise IP-100,2013-01-07 16:41:00,
2013-01-07 11:46:00,24.1,16.0,29.87,ENE,67,7.7,7.9,66,0.00,,,0.00,Rainwise IP-100,2013-01-07 16:46:00,
2013-01-07 11:51:00,24.2,14.0,29.87,NE,45,4.7,9.8,65,0.00,,,0.00,Rainwise IP-100,2013-01-07 16:51:00,
2013-01-07 11:56:00,24.4,14.0,29.88,NE,45,0.0,7.9,65,0.00,,,0.00,Rainwise IP-100,2013-01-07 16:56:00,
2013-01-07 12:01:00,25.2,18.0,29.87,ESE,112,0.0,4.9,72,0.00,,,0.00,Rainwise IP-100,2013-01-07 17:01:00,
2013-01-07 12:06:00,26.1,21.0,29.88,NNE,22,4.2,6.3,80,0.00,,,0.00,Rainwise IP-100,2013-01-07 17:06:00,
2013-01-07 12:11:00,26.1,21.0,29.88,ENE,67,5.4,5.4,80,0.00,,,0.00,Rainwise IP-100,2013-01-07 17:11:00,
2013-01-07 12:16:00,25.6,18.0,29.88,ENE,67,3.0,6.3,74,0.00,,,0.00,Rainwise IP-100,2013-01-07 17:16:00,
2013-01-07 12:21:00,25.2,16.0,29.88,ENE,67,4.9,7.0,67,0.00,,,0.00,Rainwise IP-100,2013-01-07 17:21:00,
2013-01-07 12:26:00,25.7,16.0,29.88,WNW,292,1.4,8.4,65,0.00,,,0.00,Rainwise IP-100,2013-01-07 17:26:00,
2013-01-07 12:32:00,26.7,18.0,29.88,NNE,22,5.8,6.5,65,0.00,,,0.00,Rainwise IP-100,2013-01-07 17:32:00,
2013-01-07 12:37:00,27.1,18.0,29.87,ENE,67,2.8,7.0,66,0.00,,,0.00,Rainwise IP-100,2013-01-07 17:37:00,
2013-01-07 12:42:00,26.9,18.0,29.87,NNE,22,4.2,7.9,64,0.00,,,0.00,Rainwise IP-100,2013-01-07 17:42:00,
2013-01-07 12:47:00,26.9,16.0,29.87,NNE,22,5.8,6.8,62,0.00,,,0.00,Rainwise IP-100,2013-01-07 17:47:00,
2013-01-07 12:52:00,27.3,16.0,29.87,NNE,22,6.1,9.8,61,0.00,,,0.00,Rainwise IP-100,2013-01-07 17:52:00,
2013-01-07 12:57:00,27.4,16.0,29.87,NNW,337,3.3,8.9,59,0.00,,,0.00,Rainwise IP-100,2013-01-07 17:57:00,
2013-01-07 13:02:00,27.5,16.0,29.87,NNW,337,2.6,6.8,59,0.00,,,0.00,Rainwise IP-100,2013-01-07 18:02:00,
2013-01-07 13:07:00,28.0,16.0,29.88,NE,45,3.3,7.2,60,0.00,,,0.00,Rainwise IP-100,2013-01-07 18:07:00,
2013-01-07 13:12:00,28.3,16.0,29.87,WSW,247,0.0,6.5,61,0.00,,,0.00,Rainwise IP-100,2013-01-07 18:12:00,
2013-01-07 13:17:00,28.8,18.0,29.87,ESE,112,0.0,3.3,64,0.00,,,0.00,Rainwise IP-100,2013-01-07 18:17:00,
2013-01-07 13:22:00,29.1,21.0,29.87,NNE,22,1.2,5.1,66,0.00,,,0.00,Rainwise IP-100,2013-01-07 18:22:00,
2013-01-07 13:27:00,29.1,18.0,29.88,NNE,22,5.8,8.6,63,0.00,,,0.00,Rainwise IP-100,2013-01-07 18:27:00,
2013-01-07 13:32:00,28.9,16.0,29.88,NNW,337,5.1,7.7,59,0.00,,,0.00,Rainwise IP-100,2013-01-07 18:32:00,
2013-01-07 13:37:00,28.1,14.0,29.88,ENE,67,4.4,7.2,55,0.00,,,0.00,Rainwise IP-100,2013-01-07 18:37:00,
2013-01-07 13:42:00,27.8,14.0,29.88,ENE,67,2.6,7.2,55,0.00,,,0.00,Rainwise IP-100,2013-01-07 18:42:00,
2013-01-07 13:48:00,28.6,16.0,29.88,NNE,22,6.1,6.1,56,0.00,,,0.00,Rainwise IP-100,2013-01-07 18:48:00,
2013-01-07 13:53:00,29.4,16.0,29.88,North,360,0.0,6.1,55,0.00,,,0.00,Rainwise IP-100,2013-01-07 18:53:00,
2013-01-07 13:58:00,29.5,18.0,29.88,NE,45,4.9,4.9,56,0.00,,,0.00,Rainwise IP-100,2013-01-07 18:58:00,
2013-01-07 14:03:00,29.0,16.0,29.88,North,360,3.5,5.6,56,0.00,,,0.00,Rainwise IP-100,2013-01-07 19:03:00,
2013-01-07 14:08:00,29.3,16.0,29.89,North,360,0.0,4.9,56,0.00,,,0.00,Rainwise IP-100,2013-01-07 19:08:00,
2013-01-07 14:13:00,29.6,18.0,29.89,NNW,337,5.8,5.8,56,0.00,,,0.00,Rainwise IP-100,2013-01-07 19:13:00,
2013-01-07 14:18:00,29.8,18.0,29.88,NNE,22,2.6,5.8,56,0.00,,,0.00,Rainwise IP-100,2013-01-07 19:18:00,
2013-01-07 14:23:00,29.4,16.0,29.88,NE,45,3.5,5.6,55,0.00,,,0.00,Rainwise IP-100,2013-01-07 19:23:00,
2013-01-07 14:28:00,28.6,16.0,29.88,East,90,0.0,5.6,54,0.00,,,0.00,Rainwise IP-100,2013-01-07 19:28:00,
2013-01-07 14:33:00,28.5,16.0,29.88,ENE,67,4.0,4.7,54,0.00,,,0.00,Rainwise IP-100,2013-01-07 19:33:00,
2013-01-07 14:38:00,28.8,16.0,29.89,NNE,22,2.6,4.4,54,0.00,,,0.00,Rainwise IP-100,2013-01-07 19:38:00,
2013-01-07 14:43:00,29.9,16.0,29.89,NNE,22,0.0,2.8,54,0.00,,,0.00,Rainwise IP-100,2013-01-07 19:43:00,
2013-01-07 14:48:00,31.0,16.0,29.89,ENE,67,0.0,0.0,55,0.00,,,0.00,Rainwise IP-100,2013-01-07 19:48:00,
2013-01-07 14:53:00,31.2,16.0,29.89,ENE,67,0.0,2.6,55,0.00,,,0.00,Rainwise IP-100,2013-01-07 19:53:00,
2013-01-07 14:58:00,31.2,16.0,29.89,ENE,67,0.0,2.1,55,0.00,,,0.00,Rainwise IP-100,2013-01-07 19:58:00,
2013-01-07 15:04:00,31.9,18.0,29.90,ENE,67,0.0,2.1,55,0.00,,,0.00,Rainwise IP-100,2013-01-07 20:04:00,
2013-01-07 15:09:00,32.7,18.0,29.90,ENE,67,0.0,0.0,55,0.00,,,0.00,Rainwise IP-100,2013-01-07 20:09:00,
2013-01-07 15:14:00,33.2,18.0,29.90,ENE,67,0.0,0.0,54,0.00,,,0.00,Rainwise IP-100,2013-01-07 20:14:00,
2013-01-07 15:19:00,33.5,21.0,29.90,ENE,67,0.0,0.0,53,0.00,,,0.00,Rainwise IP-100,2013-01-07 20:19:00,
2013-01-07 15:24:00,33.6,18.0,29.90,ENE,67,0.0,0.0,52,0.00,,,0.00,Rainwise IP-100,2013-01-07 20:24:00,
2013-01-07 15:29:00,33.6,18.0,29.90,ENE,67,0.0,0.0,50,0.00,,,0.00,Rainwise IP-100,2013-01-07 20:29:00,
2013-01-07 15:34:00,33.3,16.0,29.90,ENE,67,0.0,1.2,48,0.00,,,0.00,Rainwise IP-100,2013-01-07 20:34:00,
2013-01-07 15:39:00,32.5,14.0,29.90,ENE,67,0.0,0.0,44,0.00,,,0.00,Rainwise IP-100,2013-01-07 20:39:00,
2013-01-07 15:44:00,31.3,11.0,29.90,ENE,67,0.0,1.9,43,0.00,,,0.00,Rainwise IP-100,2013-01-07 20:44:00,
2013-01-07 15:49:00,30.1,11.0,29.90,NW,315,0.0,1.6,44,0.00,,,0.00,Rainwise IP-100,2013-01-07 20:49:00,
2013-01-07 15:54:00,29.0,14.0,29.90,NW,315,0.0,2.1,48,0.00,,,0.00,Rainwise IP-100,2013-01-07 20:54:00,
2013-01-07 15:59:00,28.0,14.0,29.90,NW,315,0.0,1.2,51,0.00,,,0.00,Rainwise IP-100,2013-01-07 20:59:00,
2013-01-07 16:04:00,27.3,14.0,29.90,NW,315,0.0,1.6,53,0.00,,,0.00,Rainwise IP-100,2013-01-07 21:04:00,
2013-01-07 16:09:00,27.0,14.0,29.90,NW,315,0.0,0.0,54,0.00,,,0.00,Rainwise IP-100,2013-01-07 21:09:00,
2013-01-07 16:14:00,26.8,14.0,29.90,NW,315,1.2,1.4,55,0.00,,,0.00,Rainwise IP-100,2013-01-07 21:14:00,
2013-01-07 16:19:00,26.6,14.0,29.89,NW,315,0.0,2.1,55,0.00,,,0.00,Rainwise IP-100,2013-01-07 21:19:00,
2013-01-07 16:24:00,26.4,14.0,29.89,NW,315,1.4,1.9,55,0.00,,,0.00,Rainwise IP-100,2013-01-07 21:24:00,
2013-01-07 16:29:00,26.3,14.0,29.89,NW,315,0.0,2.8,56,0.00,,,0.00,Rainwise IP-100,2013-01-07 21:29:00,
2013-01-07 16:34:00,26.1,14.0,29.89,NW,315,0.0,0.0,56,0.00,,,0.00,Rainwise IP-100,2013-01-07 21:34:00,
2013-01-07 16:40:00,25.8,14.0,29.90,NW,315,0.0,0.0,57,0.00,,,0.00,Rainwise IP-100,2013-01-07 21:40:00,
2013-01-07 16:45:00,25.2,14.0,29.89,NW,315,0.0,0.0,60,0.00,,,0.00,Rainwise IP-100,2013-01-07 21:45:00,
2013-01-07 16:50:00,24.7,16.0,29.90,NW,315,0.0,0.0,63,0.00,,,0.00,Rainwise IP-100,2013-01-07 21:50:00,
2013-01-07 16:55:00,23.7,16.0,29.90,NW,315,1.9,2.1,66,0.00,,,0.00,Rainwise IP-100,2013-01-07 21:55:00,
2013-01-07 17:00:00,23.0,14.0,29.89,NW,315,2.6,3.3,66,0.00,,,0.00,Rainwise IP-100,2013-01-07 22:00:00,
2013-01-07 17:05:00,23.1,14.0,29.90,NNW,337,3.5,4.2,66,0.00,,,0.00,Rainwise IP-100,2013-01-07 22:05:00,
2013-01-07 17:10:00,23.4,14.0,29.90,NNW,337,2.3,4.2,66,0.00,,,0.00,Rainwise IP-100,2013-01-07 22:10:00,
2013-01-07 17:15:00,23.3,14.0,29.90,NNW,337,0.0,3.3,66,0.00,,,0.00,Rainwise IP-100,2013-01-07 22:15:00,
2013-01-07 17:20:00,23.1,14.0,29.91,NNW,337,0.0,3.3,66,0.00,,,0.00,Rainwise IP-100,2013-01-07 22:20:00,
2013-01-07 17:25:00,22.7,14.0,29.90,NNW,337,0.0,1.9,67,0.00,,,0.00,Rainwise IP-100,2013-01-07 22:25:00,
2013-01-07 17:30:00,22.3,14.0,29.90,NNW,337,0.0,0.0,68,0.00,,,0.00,Rainwise IP-100,2013-01-07 22:30:00,
2013-01-07 17:35:00,22.2,14.0,29.90,NNW,337,0.0,3.5,68,0.00,,,0.00,Rainwise IP-100,2013-01-07 22:35:00,
2013-01-07 17:40:00,22.2,14.0,29.90,NNW,337,0.0,2.1,68,0.00,,,0.00,Rainwise IP-100,2013-01-07 22:40:00,
2013-01-07 17:45:00,21.8,14.0,29.90,NNW,337,0.0,0.0,69,0.00,,,0.00,Rainwise IP-100,2013-01-07 22:45:00,
2013-01-07 17:50:00,21.1,14.0,29.90,NNW,337,1.2,1.2,71,0.00,,,0.00,Rainwise IP-100,2013-01-07 22:50:00,
2013-01-07 17:56:00,20.3,14.0,29.90,NNW,337,1.2,1.4,72,0.00,,,0.00,Rainwise IP-100,2013-01-07 22:56:00,
2013-01-07 18:01:00,19.5,14.0,29.90,NNW,337,2.8,2.8,73,0.00,,,0.00,Rainwise IP-100,2013-01-07 23:01:00,
2013-01-07 18:06:00,19.3,14.0,29.90,NNW,337,4.7,4.7,73,0.00,,,0.00,Rainwise IP-100,2013-01-07 23:06:00,
2013-01-07 18:11:00,19.7,14.0,29.90,NNW,337,0.0,5.1,73,0.00,,,0.00,Rainwise IP-100,2013-01-07 23:11:00,
2013-01-07 18:16:00,19.8,14.0,29.90,NNW,337,0.0,0.0,73,0.00,,,0.00,Rainwise IP-100,2013-01-07 23:16:00,
2013-01-07 18:21:00,19.4,14.0,29.90,NNW,337,1.4,1.6,74,0.00,,,0.00,Rainwise IP-100,2013-01-07 23:21:00,
2013-01-07 18:26:00,19.2,14.0,29.90,NNW,337,0.0,1.9,75,0.00,,,0.00,Rainwise IP-100,2013-01-07 23:26:00,
2013-01-07 18:31:00,19.2,14.0,29.89,NNW,337,0.0,1.9,75,0.00,,,0.00,Rainwise IP-100,2013-01-07 23:31:00,
2013-01-07 18:36:00,19.0,14.0,29.90,NNW,337,0.0,0.0,75,0.00,,,0.00,Rainwise IP-100,2013-01-07 23:36:00,
2013-01-07 18:41:00,18.7,14.0,29.89,NNW,337,0.0,2.1,76,0.00,,,0.00,Rainwise IP-100,2013-01-07 23:41:00,
2013-01-07 18:46:00,18.5,14.0,29.89,NNW,337,0.0,0.0,76,0.00,,,0.00,Rainwise IP-100,2013-01-07 23:46:00,
2013-01-07 18:51:00,18.1,14.0,29.89,NNE,22,4.0,5.6,77,0.00,,,0.00,Rainwise IP-100,2013-01-07 23:51:00,
2013-01-07 18:56:00,17.6,14.0,29.89,NNW,337,1.6,7.2,77,0.00,,,0.00,Rainwise IP-100,2013-01-07 23:56:00,
2013-01-07 19:01:00,17.2,14.0,29.89,NNW,337,0.0,3.0,77,0.00,,,0.00,Rainwise IP-100,2013-01-08 00:01:00,
2013-01-07 19:06:00,16.9,14.0,29.89,NNW,337,0.0,1.2,78,0.00,,,0.00,Rainwise IP-100,2013-01-08 00:06:00,
2013-01-07 19:12:00,16.5,14.0,29.89,NNW,337,2.8,3.0,78,0.00,,,0.00,Rainwise IP-100,2013-01-08 00:12:00,
2013-01-07 19:17:00,16.4,11.0,29.89,NNW,337,2.8,5.1,79,0.00,,,0.00,Rainwise IP-100,2013-01-08 00:17:00,
2013-01-07 19:22:00,16.6,14.0,29.88,NNW,337,4.4,4.7,79,0.00,,,0.00,Rainwise IP-100,2013-01-08 00:22:00,
2013-01-07 19:27:00,16.4,11.0,29.88,NNW,337,2.6,5.1,79,0.00,,,0.00,Rainwise IP-100,2013-01-08 00:27:00,
2013-01-07 19:32:00,16.2,11.0,29.88,NNW,337,2.6,5.1,79,0.00,,,0.00,Rainwise IP-100,2013-01-08 00:32:00,
2013-01-07 19:37:00,16.1,11.0,29.88,NNW,337,0.0,3.3,80,0.00,,,0.00,Rainwise IP-100,2013-01-08 00:37:00,
2013-01-07 19:42:00,15.8,11.0,29.89,NNW,337,1.6,3.0,80,0.00,,,0.00,Rainwise IP-100,2013-01-08 00:42:00,
2013-01-07 19:47:00,15.4,11.0,29.88,NW,315,0.0,2.3,80,0.00,,,0.00,Rainwise IP-100,2013-01-08 00:47:00,
2013-01-07 19:52:00,15.3,11.0,29.88,NW,315,0.0,0.0,81,0.00,,,0.00,Rainwise IP-100,2013-01-08 00:52:00,
2013-01-07 19:57:00,15.1,11.0,29.88,NW,315,0.0,0.0,81,0.00,,,0.00,Rainwise IP-100,2013-01-08 00:57:00,
2013-01-07 20:02:00,15.0,11.0,29.88,NW,315,0.0,0.0,82,0.00,,,0.00,Rainwise IP-100,2013-01-08 01:02:00,
2013-01-07 20:07:00,14.9,11.0,29.88,NW,315,0.0,0.0,82,0.00,,,0.00,Rainwise IP-100,2013-01-08 01:07:00,
2013-01-07 20:12:00,14.5,11.0,29.88,NW,315,0.0,1.6,82,0.00,,,0.00,Rainwise IP-100,2013-01-08 01:12:00,
2013-01-07 20:17:00,14.1,11.0,29.88,NW,315,0.0,0.0,83,0.00,,,0.00,Rainwise IP-100,2013-01-08 01:17:00,
2013-01-07 20:22:00,13.7,11.0,29.88,NW,315,1.2,1.2,83,0.00,,,0.00,Rainwise IP-100,2013-01-08 01:22:00,
2013-01-07 20:28:00,13.1,11.0,29.88,NW,315,0.0,1.2,84,0.00,,,0.00,Rainwise IP-100,2013-01-08 01:28:00,
2013-01-07 20:33:00,13.0,11.0,29.88,NW,315,0.0,0.0,85,0.00,,,0.00,Rainwise IP-100,2013-01-08 01:33:00,
2013-01-07 20:38:00,13.1,11.0,29.88,NW,315,0.0,0.0,86,0.00,,,0.00,Rainwise IP-100,2013-01-08 01:38:00,
2013-01-07 20:43:00,13.3,11.0,29.87,NW,315,0.0,0.0,86,0.00,,,0.00,Rainwise IP-100,2013-01-08 01:43:00,
2013-01-07 20:48:00,13.1,11.0,29.87,NW,315,0.0,0.0,85,0.00,,,0.00,Rainwise IP-100,2013-01-08 01:48:00,
2013-01-07 20:53:00,12.8,11.0,29.88,NW,315,0.0,2.8,85,0.00,,,0.00,Rainwise IP-100,2013-01-08 01:53:00,
2013-01-07 20:58:00,12.6,11.0,29.88,NW,315,1.2,3.7,86,0.00,,,0.00,Rainwise IP-100,2013-01-08 01:58:00,
2013-01-07 21:03:00,12.4,11.0,29.87,NW,315,1.9,3.0,86,0.00,,,0.00,Rainwise IP-100,2013-01-08 02:03:00,
2013-01-07 21:08:00,12.3,11.0,29.87,NW,315,0.0,2.1,86,0.00,,,0.00,Rainwise IP-100,2013-01-08 02:08:00,
2013-01-07 21:13:00,12.2,11.0,29.87,NW,315,0.0,2.6,86,0.00,,,0.00,Rainwise IP-100,2013-01-08 02:13:00,
2013-01-07 21:18:00,12.2,11.0,29.88,NW,315,0.0,1.9,86,0.00,,,0.00,Rainwise IP-100,2013-01-08 02:18:00,
2013-01-07 21:23:00,12.0,11.0,29.87,NW,315,0.0,0.0,86,0.00,,,0.00,Rainwise IP-100,2013-01-08 02:23:00,
2013-01-07 21:28:00,12.0,11.0,29.88,NW,315,0.0,0.0,86,0.00,,,0.00,Rainwise IP-100,2013-01-08 02:28:00,
2013-01-07 21:33:00,11.7,11.0,29.88,NW,315,0.0,1.9,86,0.00,,,0.00,Rainwise IP-100,2013-01-08 02:33:00,
2013-01-07 21:38:00,11.4,8.0,29.87,NW,315,0.0,0.0,86,0.00,,,0.00,Rainwise IP-100,2013-01-08 02:38:00,
2013-01-07 21:44:00,11.4,8.0,29.88,NW,315,0.0,0.0,87,0.00,,,0.00,Rainwise IP-100,2013-01-08 02:44:00,
2013-01-07 21:49:00,11.2,8.0,29.87,NW,315,0.0,0.0,88,0.00,,,0.00,Rainwise IP-100,2013-01-08 02:49:00,
2013-01-07 21:54:00,10.9,8.0,29.87,NW,315,0.0,0.0,88,0.00,,,0.00,Rainwise IP-100,2013-01-08 02:54:00,
2013-01-07 21:59:00,10.8,8.0,29.87,NW,315,0.0,0.0,88,0.00,,,0.00,Rainwise IP-100,2013-01-08 02:59:00,
2013-01-07 22:04:00,10.6,8.0,29.87,NW,315,0.0,0.0,88,0.00,,,0.00,Rainwise IP-100,2013-01-08 03:04:00,
2013-01-07 22:09:00,10.3,8.0,29.87,NW,315,0.0,0.0,88,0.00,,,0.00,Rainwise IP-100,2013-01-08 03:09:00,
2013-01-07 22:14:00,10.1,8.0,29.87,NW,315,0.0,0.0,89,0.00,,,0.00,Rainwise IP-100,2013-01-08 03:14:00,
2013-01-07 22:19:00,9.9,8.0,29.88,NW,315,0.0,0.0,89,0.00,,,0.00,Rainwise IP-100,2013-01-08 03:19:00,
2013-01-07 22:24:00,9.5,8.0,29.88,NW,315,0.0,0.0,89,0.00,,,0.00,Rainwise IP-100,2013-01-08 03:24:00,
2013-01-07 22:29:00,9.3,8.0,29.87,NW,315,0.0,0.0,89,0.00,,,0.00,Rainwise IP-100,2013-01-08 03:29:00,
2013-01-07 22:34:00,9.2,8.0,29.87,NW,315,0.0,0.0,90,0.00,,,0.00,Rainwise IP-100,2013-01-08 03:34:00,
2013-01-07 22:39:00,9.2,8.0,29.88,NW,315,0.0,0.0,90,0.00,,,0.00,Rainwise IP-100,2013-01-08 03:39:00,
2013-01-07 22:44:00,9.1,8.0,29.88,NW,315,0.0,0.0,90,0.00,,,0.00,Rainwise IP-100,2013-01-08 03:44:00,
2013-01-07 22:49:00,8.9,8.0,29.87,NW,315,0.0,0.0,90,0.00,,,0.00,Rainwise IP-100,2013-01-08 03:49:00,
2013-01-07 22:54:00,8.8,8.0,29.87,NW,315,0.0,0.0,90,0.00,,,0.00,Rainwise IP-100,2013-01-08 03:54:00,
2013-01-07 23:00:00,8.7,8.0,29.87,NW,315,0.0,0.0,91,0.00,,,0.00,Rainwise IP-100,2013-01-08 04:00:00,
2013-01-07 23:05:00,8.5,8.0,29.87,NW,315,0.0,0.0,91,0.00,,,0.00,Rainwise IP-100,2013-01-08 04:05:00,
2013-01-07 23:10:00,8.2,4.0,29.86,NW,315,0.0,2.8,91,0.00,,,0.00,Rainwise IP-100,2013-01-08 04:10:00,
2013-01-07 23:15:00,8.1,4.0,29.86,NW,315,0.0,1.2,91,0.00,,,0.00,Rainwise IP-100,2013-01-08 04:15:00,
2013-01-07 23:20:00,8.0,4.0,29.86,NW,315,0.0,2.1,91,0.00,,,0.00,Rainwise IP-100,2013-01-08 04:20:00,
2013-01-07 23:25:00,7.9,4.0,29.86,NW,315,0.0,1.2,91,0.00,,,0.00,Rainwise IP-100,2013-01-08 04:25:00,
2013-01-07 23:30:00,7.8,4.0,29.86,NW,315,0.0,0.0,91,0.00,,,0.00,Rainwise IP-100,2013-01-08 04:30:00,
2013-01-07 23:35:00,7.8,4.0,29.86,NW,315,0.0,0.0,91,0.00,,,0.00,Rainwise IP-100,2013-01-08 04:35:00,
2013-01-07 23:40:00,7.7,8.0,29.86,NW,315,0.0,0.0,92,0.00,,,0.00,Rainwise IP-100,2013-01-08 04:40:00,
2013-01-07 23:45:00,7.7,8.0,29.85,NW,315,0.0,0.0,92,0.00,,,0.00,Rainwise IP-100,2013-01-08 04:45:00,
2013-01-07 23:50:00,7.7,8.0,29.85,NW,315,0.0,0.0,92,0.00,,,0.00,Rainwise IP-100,2013-01-08 04:50:00,
2013-01-07 23:55:00,7.7,8.0,29.85,NW,315,0.0,0.0,92,0.00,,,0.00,Rainwise IP-100,2013-01-08 04:55:00,